Find Starlink 37320

NORAD ID: 68711 Int'l Des: 2026-081 Owner: SPXS Country: US Constellation: starlink operational
LEOCIRCULAR

Aktuelle Ansicht

3D-Globus wird geladen...

Über Starlink 37320

Beschreibung wird geladen...

Nächste Überflüge

Passes for default location (London). Set your location on the main map for personalized predictions.

Höhenverlauf

Loading altitude history...

Zweizeiliger Elementsatz

1 68711U 26081N 26151.00002315 .00048004 00000-0 13794-2 0 9998
2 68711 53.1594 11.7992 0001284 82.8088 310.2402 15.35374496 6038
Epoch: 31. Mai 2026 • Age: 10 hours

Aktueller Status

Höhe 465.3 km
Geschwindigkeit 7.64 km/s
Subsatellitenpunkt 52.98°N, 58.19°E
Startdatum 14. Apr. 2026
Alter 0.1 years
Typ internet

Technische Details

Klassifizierung Payload
Masse 575.00 kg
Trockenmasse 530.00 kg
Gesamtmasse 575.00 kg
Länge 0.30 m
Durchmesser 4.10 m
Spannweite 29.00 m
Form Box + pan
Hersteller SPXS
Bus-Typ Starlink V2MO
Phasenstatus In Orbit
Besitzer/Staat SPXS/US

Most Searched